COSMOS 2429 [-] (32052 NORAD) Tracking and Keplerian Element Data

This shows tracking and keplerian element data for the satellite.

Feedback or suggestion? Click here.




ElementValue
Catalog32052
NameCOSMOS 2429 [-]
Epoch Orbit56085
Epoch Day318.45934274
Epoch Year2018
RAAN88.1669
Inclination82.9801
Eccentricity0.0039483
Argument of Perigee55.4717
Mean Anonmoly305.0156
Mean Motion13.74908691
Decay Rate3.5E-07
L11 32052U 07038A 18318.45934274 .00000035 00000-0 20209-4 0 9994
L22 32052 82.9801 88.1669 0039483 55.4717 305.0156 13.74908691560858

Live tracking and technical data element details for COSMOS 2429 [-] (NORAD 32052). COSMOS 2429 [-] can be tracked NOW for your location showing map with azimuth and elevation plus other details from your city location.

Track the satellite on the map from your city or location and see movement details for azimuth, elevation, latitude, longitude, range, height, and movement on the map or in text.







IsCatalogInMostPopularTable: catalog: 32052, numindb: 51
Update: records affected: 1



GetName: 32052 COSMOS 2429 [-]

Hit Count: updated at: Fri, 16 Nov 2018 05:58:04 GMT